WetterOnline ( http://www.wetteronline.de )

Wetter aktuell Westhofen

Aktuelles Wetter: Geisenheim (110m)

6-stündlich | Neueste Meldungen
Ortszeit Temperatur Wetter
Mo, 21.08. 2:00 12.6° C bedeckt
So, 20.08. 20:00 17.7° C leicht bewölkt
So, 20.08. 14:00 19.6° C leicht bewölkt
So, 20.08. 8:00 12.9° C wolkenlos
Ortszeit Temperatur Wetter
Mo, 21.08. 4:00 12.6° C bedeckt
Mo, 21.08. 3:30 12.4° C bedeckt
Mo, 21.08. 3:00 12.7° C bedeckt
Mo, 21.08. 2:30 12.7° C bedeckt
Mo, 21.08. 2:00 12.6° C bedeckt
Mo, 21.08. 1:30 12.5° C bedeckt
Ortszeit Relative Feuchte Sichtweite
Mo, 21.08. 2:00 87% 45 km
So, 20.08. 20:00 56% 45 km
So, 20.08. 14:00 44% 27 km
So, 20.08. 8:00 81% 26 km
Ortszeit Relative Feuchte Sichtweite
Mo, 21.08. 4:00 86% 30 km
Mo, 21.08. 3:30 88% 29 km
Mo, 21.08. 3:00 85% 30 km
Mo, 21.08. 2:30 88% 28 km
Mo, 21.08. 2:00 87% 45 km
Mo, 21.08. 1:30 85% 50 km
Ortszeit Niederschlagsmenge Niederschlagsart
Mo, 21.08. 2:00 0.0 l/m2 in 6 Std. -
So, 20.08. 20:00 0.0 l/m2 in 12 Std. -
So, 20.08. 14:00 0.0 l/m2 in 6 Std. -
So, 20.08. 8:00 0.1 l/m2 in 12 Std. -
Ortszeit Niederschlagsmenge Niederschlagsart
Mo, 21.08. 4:00 0.0 l/m2 in 1 Std. -
Mo, 21.08. 3:30 keine Meldung -
Mo, 21.08. 3:00 0.0 l/m2 in 1 Std. -
Mo, 21.08. 2:30 keine Meldung -
Mo, 21.08. 2:00 0.0 l/m2 in 1 Std. -
Mo, 21.08. 1:30 keine Meldung -
Ortszeit Stärke Spitze Richtung
km/h Bft. km/h Grad Sektor
Mo, 21.08. 2:00 6 1 17 320° NW
So, 20.08. 20:00 11 2 35 310° NW
So, 20.08. 14:00 18 3 32 290° W
So, 20.08. 8:00 11 2 18 240° SW
Ortszeit Stärke Spitze Richtung
km/h Bft. km/h Grad Sektor
Mo, 21.08. 4:00 0 0 7 - -
Mo, 21.08. 3:30 0 0 7 - -
Mo, 21.08. 3:00 4 1 7 290° W
Mo, 21.08. 2:30 0 0 7 - -
Mo, 21.08. 2:00 6 1 13 320° NW
Mo, 21.08. 1:30 7 2 9 330° NW
Ortszeit Untergrenze Bedeckung Gattung
total tief tief mittel hoch
Mo, 21.08. 2:00 4800 m 8/8 8/8 - - -
So, 20.08. 20:00 2400 m 4/8 4/8 - - -
So, 20.08. 14:00 2100 m 2/8 2/8 - - -
So, 20.08. 8:00 - 0/8 0/8 - - -
Ortszeit Bedeckungsgrad in Achtel und Wolkenuntergrenze
Mo, 21.08. 4:00 8(4200m)
Mo, 21.08. 3:30 8(4200m)
Mo, 21.08. 3:00 8(4200m)
Mo, 21.08. 2:30 8(4500m)
Mo, 21.08. 2:00 8(4800m) 8(6000m) 8(6600m)
Mo, 21.08. 1:30 8(4800m) 8(5700m) 8(6600m)
Ortszeit Luftdruck NN (hPa) Tendenz (hPa in 3 Std.)
Mo, 21.08. 2:00 1025 - 0,3
So, 20.08. 20:00 1024 - 0,1
So, 20.08. 14:00 1024 - 0,2
So, 20.08. 8:00 1024 + 1,1
Ortszeit Luftdruck NN (hPa) Tendenz (hPa in 3 Std.)
Mo, 21.08. 4:00 1025 - 0,7
Mo, 21.08. 3:30 1025 - 0,3
Mo, 21.08. 3:00 1025 - 0,4
Mo, 21.08. 2:30 1025 - 0,4
Mo, 21.08. 2:00 1025 - 0,3
Mo, 21.08. 1:30 1025 - 0,1
Ortszeit Schneehöhe (cm)
Mo, 21.08. 2:00 -
So, 20.08. 20:00 -
So, 20.08. 14:00 -
So, 20.08. 8:00 -
Ortszeit Schneehöhe (cm)
Mo, 21.08. 4:00 -
Mo, 21.08. 3:30 -
Mo, 21.08. 3:00 -
Mo, 21.08. 2:30 -
Mo, 21.08. 2:00 -
Mo, 21.08. 1:30 -
Link zu dieser Seite / Seite empfehlen

Das Wetter in ...